,,,PA_Meas_PMT16A,,PR_Meas_QMR101_102,,RH_Meas_QMH101,,SR_Meas_QMS101,,TA_Meas_QMH101,,GenWind,,GenWind,
date,time,status,PA,status,PR,status,RH,status,SR,status,TA,status,DirAvg,status,SpdAvg,
2009-05-19, 00:00:04,VALID,1000.53,VALID,0,VALID,91.8454,VALID,0,VALID,24.4642,VALID,114,VALID,0.628516,
2009-05-19, 00:01:04,VALID,1000.5,VALID,0,VALID,91.9293,VALID,0,VALID,24.4446,VALID,113,VALID,0.564453,
2009-05-19, 00:02:04,VALID,1000.5,VALID,0,VALID,92.0132,VALID,0,VALID,24.4642,VALID,112,VALID,0.446875,
2009-05-19, 00:03:04,VALID,1000.5,VALID,0,VALID,92.1277,VALID,0,VALID,24.4428,VALID,111,VALID,0.434375,
2009-05-19, 00:04:04,VALID,1000.48,VALID,0,VALID,92.265,VALID,0,VALID,24.4428,VALID,111,VALID,0.389062,
2009-05-19, 00:05:04,VALID,1000.49,VALID,0,VALID,92.3413,VALID,0,VALID,24.4233,VALID,108,VALID,0.579687,
2009-05-19, 00:06:04,VALID,1000.49,VALID,0,VALID,92.2574,VALID,0,VALID,24.4233,VALID,89,VALID,0.692187,
2009-05-19, 00:07:04,VALID,1000.51,VALID,0,VALID,92.2726,VALID,0,VALID,24.4037,VALID,90,VALID,0.537109,
2009-05-19, 00:08:04,VALID,1000.49,VALID,0,VALID,92.3031,VALID,0,VALID,24.4037,VALID,89,VALID,0.442578,
2009-05-19, 00:09:04,VALID,1000.51,VALID,0,VALID,92.3031,VALID,0,VALID,24.3842,VALID,89,VALID,0.43125,
2009-05-19, 00:10:04,VALID,1000.51,VALID,0,VALID,92.3413,VALID,0,VALID,24.3842,VALID,89,VALID,0.202344,
2009-05-19, 00:11:04,VALID,1000.51,VALID,0,VALID,92.3184,VALID,0,VALID,24.3647,VALID,89,VALID,0.258984,
2009-05-19, 00:12:04,VALID,1000.53,VALID,0,VALID,92.3566,VALID,0,VALID,24.3647,VALID,89,VALID,0.249219,
2009-05-19, 00:13:04,VALID,1000.51,VALID,0,VALID,92.2803,VALID,0,VALID,24.3452,VALID,89,VALID,0.223438,
2009-05-19, 00:14:04,VALID,1000.53,VALID,0,VALID,92.3108,VALID,0,VALID,24.3452,VALID,89,VALID,0.009375,
2009-05-19, 00:15:04,VALID,1000.53,VALID,0,VALID,92.1277,VALID,0,VALID,24.3257,VALID,89,VALID,0,
2009-05-19, 00:16:04,VALID,1000.55,VALID,0,VALID,91.9064,VALID,0,VALID,24.308,VALID,89,VALID,0,
2009-05-19, 00:17:04,VALID,1000.55,VALID,0,VALID,91.6241,VALID,0,VALID,24.2866,VALID,89,VALID,0.272266,
2009-05-19, 00:18:04,VALID,1000.57,VALID,0,VALID,91.4181,VALID,0,VALID,24.2671,VALID,89,VALID,0,
2009-05-19, 00:19:04,VALID,1000.56,VALID,0,VALID,91.3494,VALID,0,VALID,24.2866,VALID,89,VALID,0,
2009-05-19, 00:20:04,VALID,1000.55,VALID,0,VALID,91.4257,VALID,0,VALID,24.2866,VALID,89,VALID,0,
2009-05-19, 00:21:04,VALID,1000.53,VALID,0,VALID,91.5783,VALID,0,VALID,24.3062,VALID,89,VALID,0,
2009-05-19, 00:22:04,VALID,1000.5,VALID,0,VALID,91.6775,VALID,0,VALID,24.3062,VALID,89,VALID,0,
2009-05-19, 00:23:04,VALID,1000.51,VALID,0,VALID,91.8301,VALID,0,VALID,24.3257,VALID,89,VALID,0,
2009-05-19, 00:24:04,VALID,1000.49,VALID,0,VALID,91.853,VALID,0,VALID,24.3062,VALID,89,VALID,0,
2009-05-19, 00:25:04,VALID,1000.47,VALID,0,VALID,91.914,VALID,0,VALID,24.3062,VALID,89,VALID,0,
2009-05-19, 00:26:04,VALID,1000.48,VALID,0,VALID,91.5249,VALID,0,VALID,24.2866,VALID,89,VALID,0,
2009-05-19, 00:27:04,VALID,1000.46,VALID,0,VALID,91.4868,VALID,0,VALID,24.2866,VALID,89,VALID,0,
2009-05-19, 00:28:04,VALID,1000.41,VALID,0,VALID,91.5249,VALID,0,VALID,24.2671,VALID,89,VALID,0,
2009-05-19, 00:29:04,VALID,1000.38,VALID,0,VALID,91.4791,VALID,0,VALID,24.2866,VALID,89,VALID,0,
2009-05-19, 00:30:04,VALID,1000.35,VALID,0,VALID,91.4486,VALID,0,VALID,24.2671,VALID,89,VALID,0.273047,
2009-05-19, 00:31:04,VALID,1000.36,VALID,0,VALID,91.2731,VALID,0,VALID,24.2671,VALID,89,VALID,0.175781,
2009-05-19, 00:32:04,VALID,1000.36,VALID,0,VALID,91.3494,VALID,0,VALID,24.2866,VALID,90,VALID,0,
2009-05-19, 00:33:04,VALID,1000.33,VALID,0,VALID,91.4105,VALID,0,VALID,24.2866,VALID,90,VALID,0,
2009-05-19, 00:34:04,VALID,1000.31,VALID,0,VALID,91.296,VALID,0,VALID,24.3062,VALID,156,VALID,0.794531,
2009-05-19, 00:35:04,VALID,1000.3,VALID,0,VALID,90.823,VALID,0,VALID,24.3257,VALID,156,VALID,0.875781,
2009-05-19, 00:36:04,VALID,1000.27,VALID,0,VALID,90.9832,VALID,0,VALID,24.3452,VALID,146,VALID,0.592969,
2009-05-19, 00:37:04,VALID,1000.23,VALID,0,VALID,90.9374,VALID,0,VALID,24.3842,VALID,131,VALID,0.755078,
2009-05-19, 00:38:04,VALID,1000.21,VALID,0,VALID,90.968,VALID,0,VALID,24.4037,VALID,118,VALID,0.775781,
2009-05-19, 00:39:04,VALID,1000.21,VALID,0,VALID,90.7238,VALID,0,VALID,24.4037,VALID,97,VALID,0.959766,
2009-05-19, 00:40:04,VALID,1000.15,VALID,0,VALID,90.884,VALID,0,VALID,24.4233,VALID,93,VALID,0.866406,
2009-05-19, 00:41:04,VALID,1000.15,VALID,0,VALID,90.823,VALID,0,VALID,24.4037,VALID,83,VALID,0.960156,
2009-05-19, 00:42:04,VALID,1000.13,VALID,0,VALID,90.8459,VALID,0,VALID,24.4037,VALID,68,VALID,0.934766,
2009-05-19, 00:43:04,VALID,1000.1,VALID,0,VALID,91.09,VALID,0,VALID,24.4037,VALID,66,VALID,0.892187,
2009-05-19, 00:44:04,VALID,1000.09,VALID,0,VALID,91.174,VALID,0,VALID,24.4037,VALID,59,VALID,0.989062,
2009-05-19, 00:45:04,VALID,1000.11,VALID,0,VALID,91.3952,VALID,0,VALID,24.4037,VALID,58,VALID,0.6875,
2009-05-19, 00:46:04,VALID,1000.12,VALID,0,VALID,91.6699,VALID,0,VALID,24.3842,VALID,56,VALID,0.816797,
2009-05-19, 00:47:04,VALID,1000.1,VALID,0,VALID,91.8377,VALID,0,VALID,24.3842,VALID,53,VALID,0.617188,
2009-05-19, 00:48:04,VALID,1000.14,VALID,0,VALID,91.8759,VALID,0,VALID,24.3647,VALID,57,VALID,0.4,
2009-05-19, 00:49:04,VALID,1000.13,VALID,0,VALID,91.9293,VALID,0,VALID,24.3647,VALID,58,VALID,0.540234,
2009-05-19, 00:50:04,VALID,1000.16,VALID,0,VALID,91.9751,VALID,0,VALID,24.3257,VALID,58,VALID,0.300391,
2009-05-19, 00:51:04,VALID,1000.15,VALID,0,VALID,91.9751,VALID,0,VALID,24.3257,VALID,58,VALID,0.232422,
2009-05-19, 00:52:04,VALID,1000.15,VALID,0,VALID,92.0437,VALID,0,VALID,24.3062,VALID,58,VALID,0.0296875,
2009-05-19, 00:53:04,VALID,1000.14,VALID,0,VALID,92.0743,VALID,0,VALID,24.2866,VALID,58,VALID,0,
2009-05-19, 00:54:04,VALID,1000.13,VALID,0,VALID,92.1277,VALID,0,VALID,24.2671,VALID,58,VALID,0,
2009-05-19, 00:55:04,VALID,1000.14,VALID,0,VALID,92.2268,VALID,0,VALID,24.2671,VALID,58,VALID,0,
2009-05-19, 00:56:04,VALID,1000.13,VALID,0,VALID,92.3718,VALID,0,VALID,24.2476,VALID,58,VALID,0.282813,
2009-05-19, 00:57:04,VALID,1000.12,VALID,0,VALID,92.3947,VALID,0,VALID,24.2476,VALID,58,VALID,0,
2009-05-19, 00:58:04,VALID,1000.12,VALID,0,VALID,92.4557,VALID,0,VALID,24.2476,VALID,114,VALID,0,
2009-05-19, 00:59:04,VALID,1000.12,VALID,0,VALID,92.532,VALID,0,VALID,24.2476,VALID,119,VALID,0.455859,
2009-05-19, 01:00:04,VALID,1000.14,VALID,0,VALID,92.5626,VALID,0,VALID,24.2476,VALID,120,VALID,0.494531,
2009-05-19, 01:01:04,VALID,1000.11,VALID,0,VALID,92.5626,VALID,0,VALID,24.2671,VALID,120,VALID,0.460547,
2009-05-19, 01:02:04,VALID,1000.11,VALID,0,VALID,92.5091,VALID,0,VALID,24.2476,VALID,120,VALID,0.161328,
2009-05-19, 01:03:04,VALID,1000.14,VALID,0,VALID,92.4405,VALID,0,VALID,24.2281,VALID,143,VALID,0.287109,
2009-05-19, 01:04:04,VALID,1000.15,VALID,0,VALID,92.4328,VALID,0,VALID,24.2476,VALID,143,VALID,0.276172,
2009-05-19, 01:05:04,VALID,1000.16,VALID,0,VALID,92.4557,VALID,0,VALID,24.2476,VALID,165,VALID,0.328125,
2009-05-19, 01:06:04,VALID,1000.15,VALID,0,VALID,92.5397,VALID,0,VALID,24.2671,VALID,212,VALID,0.464453,
2009-05-19, 01:07:04,VALID,1000.15,VALID,0,VALID,92.5168,VALID,0,VALID,24.2885,VALID,212,VALID,0.305469,
2009-05-19, 01:08:04,VALID,1000.16,VALID,0,VALID,92.4939,VALID,0,VALID,24.2671,VALID,212,VALID,0.157422,
2009-05-19, 01:09:04,VALID,1000.17,VALID,0,VALID,92.5015,VALID,0,VALID,24.2671,VALID,212,VALID,0.214062,
2009-05-19, 01:10:04,VALID,1000.14,VALID,0,VALID,92.5091,VALID,0,VALID,24.2671,VALID,212,VALID,0.232812,
2009-05-19, 01:11:04,VALID,1000.16,VALID,0,VALID,92.5397,VALID,0,VALID,24.2476,VALID,212,VALID,0.248047,
2009-05-19, 01:12:04,VALID,1000.12,VALID,0,VALID,92.5778,VALID,0,VALID,24.2671,VALID,212,VALID,0.03125,
2009-05-19, 01:13:04,VALID,1000.13,VALID,0,VALID,92.5397,VALID,0,VALID,24.2671,VALID,212,VALID,0,
2009-05-19, 01:14:04,VALID,1000.11,VALID,0,VALID,92.5549,VALID,0,VALID,24.2671,VALID,212,VALID,0,
2009-05-19, 01:15:04,VALID,1000.14,VALID,0,VALID,92.6236,VALID,0,VALID,24.2671,VALID,212,VALID,0,
2009-05-19, 01:16:04,VALID,1000.14,VALID,0,VALID,92.6846,VALID,0,VALID,24.2671,VALID,212,VALID,0,
2009-05-19, 01:17:04,VALID,1000.12,VALID,0,VALID,92.738,VALID,0,VALID,24.2671,VALID,212,VALID,0.163672,
2009-05-19, 01:18:04,VALID,1000.15,VALID,0,VALID,92.677,VALID,0,VALID,24.2671,VALID,212,VALID,0.151172,
2009-05-19, 01:19:04,VALID,1000.14,VALID,0,VALID,92.6465,VALID,0,VALID,24.2671,VALID,212,VALID,0.236328,
2009-05-19, 01:20:04,VALID,1000.13,VALID,0,VALID,92.6617,VALID,0,VALID,24.2671,VALID,212,VALID,0.278125,
2009-05-19, 01:21:04,VALID,1000.14,VALID,0,VALID,92.8296,VALID,0,VALID,24.2866,VALID,212,VALID,0.190234,
2009-05-19, 01:22:04,VALID,1000.15,VALID,0,VALID,92.8906,VALID,0,VALID,24.3062,VALID,212,VALID,0.232422,
2009-05-19, 01:23:04,VALID,1000.15,VALID,0,VALID,92.9211,VALID,0,VALID,24.3452,VALID,238,VALID,0.690625,
2009-05-19, 01:24:04,VALID,1000.13,VALID,0,VALID,92.8906,VALID,0,VALID,24.3452,VALID,21,VALID,0.625391,
2009-05-19, 01:25:04,VALID,1000.13,VALID,0,VALID,92.7914,VALID,0,VALID,24.3257,VALID,358,VALID,1.29375,
2009-05-19, 01:26:04,VALID,1000.13,VALID,0,VALID,93.0127,VALID,0,VALID,24.3647,VALID,353,VALID,1.86133,
2009-05-19, 01:27:04,VALID,1000.12,VALID,0,VALID,92.6999,VALID,0,VALID,24.3452,VALID,348,VALID,1.34414,
2009-05-19, 01:28:04,VALID,1000.08,VALID,0,VALID,92.4405,VALID,0,VALID,24.3452,VALID,21,VALID,1.04609,
2009-05-19, 01:29:04,VALID,1000.06,VALID,0,VALID,92.4939,VALID,0,VALID,24.3842,VALID,338,VALID,3.27344,
2009-05-19, 01:30:04,VALID,1000.09,VALID,0,VALID,92.4634,VALID,0,VALID,24.4233,VALID,44,VALID,1.62031,
2009-05-19, 01:31:04,VALID,1000.12,VALID,0,VALID,92.4634,VALID,0,VALID,24.4233,VALID,13,VALID,1.4082,
2009-05-19, 01:32:04,VALID,1000.14,VALID,0,VALID,92.3718,VALID,0,VALID,24.4428,VALID,276,VALID,0.970312,
2009-05-19, 01:33:04,VALID,1000.17,VALID,0,VALID,92.1506,VALID,0,VALID,24.4818,VALID,215,VALID,1.61523,
2009-05-19, 01:34:04,VALID,1000.14,VALID,0,VALID,91.8759,VALID,0,VALID,24.4818,VALID,208,VALID,1.72148,
2009-05-19, 01:35:04,VALID,1000.16,VALID,0,VALID,91.853,VALID,0,VALID,24.4428,VALID,202,VALID,1.16875,
2009-05-19, 01:36:04,VALID,1000.16,VALID,0,VALID,91.1434,VALID,0,VALID,24.4233,VALID,198,VALID,1.71953,
2009-05-19, 01:37:04,VALID,1000.14,VALID,0,VALID,90.7009,VALID,0,VALID,24.4623,VALID,173,VALID,1.94766,
2009-05-19, 01:38:04,VALID,1000.19,VALID,0,VALID,90.2584,VALID,0,VALID,24.4623,VALID,214,VALID,1.45234,
2009-05-19, 01:39:04,VALID,1000.2,VALID,0,VALID,90.1363,VALID,0,VALID,24.4623,VALID,207,VALID,1.16172,
2009-05-19, 01:40:04,VALID,1000.22,VALID,0,VALID,90.2889,VALID,0,VALID,24.4623,VALID,258,VALID,1.55117,
2009-05-19, 01:41:04,VALID,1000.25,VALID,0,VALID,90.7085,VALID,0,VALID,24.4233,VALID,273,VALID,1.51875,
2009-05-19, 01:42:04,VALID,1000.25,VALID,0.5,VALID,91.3266,VALID,0,VALID,24.3647,VALID,288,VALID,1.43555,
2009-05-19, 01:43:04,VALID,1000.2,VALID,0.5,VALID,91.4563,VALID,0,VALID,24.2671,VALID,231,VALID,1.52422,
2009-05-19, 01:44:04,VALID,1000.2,VALID,0,VALID,91.5097,VALID,0,VALID,24.1305,VALID,271,VALID,1.90977,
2009-05-19, 01:45:04,VALID,1000.17,VALID,0.5,VALID,91.792,VALID,0,VALID,24.0329,VALID,231,VALID,1.1125,
2009-05-19, 01:46:04,VALID,1000.16,VALID,0.5,VALID,92.1506,VALID,0,VALID,23.9549,VALID,290,VALID,1.05352,
2009-05-19, 01:47:04,VALID,1000.11,VALID,0.5,VALID,92.5931,VALID,0,VALID,23.9159,VALID,17,VALID,0.6875,
2009-05-19, 01:48:04,VALID,1000.09,VALID,0.5,VALID,92.7914,VALID,0,VALID,23.8573,VALID,98,VALID,0.382813,
2009-05-19, 01:49:04,VALID,1000.06,VALID,0.5,VALID,92.9593,VALID,0,VALID,23.8183,VALID,89,VALID,0.269922,
2009-05-19, 01:50:04,VALID,1000.06,VALID,0.5,VALID,93.0661,VALID,0,VALID,23.7597,VALID,291,VALID,0.929688,
2009-05-19, 01:51:04,VALID,1000.06,VALID,0.5,VALID,93.028,VALID,0,VALID,23.6817,VALID,294,VALID,1.65352,
2009-05-19, 01:52:04,VALID,1000.04,VALID,0.5,VALID,92.9364,VALID,0,VALID,23.5646,VALID,306,VALID,1.0375,
2009-05-19, 01:53:04,VALID,1000,VALID,0.5,VALID,93.2721,VALID,0,VALID,23.5256,VALID,346,VALID,0.973437,
2009-05-19, 01:54:04,VALID,999.982,VALID,0.5,VALID,93.1729,VALID,0,VALID,23.428,VALID,291,VALID,1.99375,
2009-05-19, 01:55:04,VALID,1000.01,VALID,1,VALID,93.3179,VALID,0,VALID,23.3695,VALID,293,VALID,1.57187,
2009-05-19, 01:56:04,VALID,1000.04,VALID,0.5,VALID,93.5468,VALID,0,VALID,23.3305,VALID,287,VALID,0.567187,
2009-05-19, 01:57:04,VALID,1000.05,VALID,0.5,VALID,93.2645,VALID,0,VALID,23.2134,VALID,299,VALID,2.74922,
2009-05-19, 01:58:04,VALID,1000.09,VALID,0.5,VALID,93.3713,VALID,0,VALID,23.1159,VALID,292,VALID,1.93242,
2009-05-19, 01:59:04,VALID,1000.07,VALID,1,VALID,93.3866,VALID,0,VALID,22.9988,VALID,294,VALID,1.79766,
2009-05-19, 02:00:04,VALID,1000.1,VALID,0.5,VALID,93.5468,VALID,0,VALID,22.8995,VALID,294,VALID,2.19219,
2009-05-19, 02:01:04,VALID,1000.1,VALID,1,VALID,93.562,VALID,0,VALID,22.8037,VALID,303,VALID,2.45898,
2009-05-19, 02:02:04,VALID,1000.11,VALID,0.5,VALID,93.7451,VALID,0,VALID,22.7469,VALID,295,VALID,2.14805,
2009-05-19, 02:03:04,VALID,1000.09,VALID,0.5,VALID,93.9664,VALID,0,VALID,22.7062,VALID,321,VALID,1.37617,
2009-05-19, 02:04:04,VALID,1000.1,VALID,0,VALID,94.1877,VALID,0,VALID,22.7079,VALID,337,VALID,1.8332,
2009-05-19, 02:05:04,VALID,1000.06,VALID,0.5,VALID,94.264,VALID,0,VALID,22.6672,VALID,350,VALID,1.65156,
2009-05-19, 02:06:04,VALID,1000.09,VALID,0.5,VALID,94.3555,VALID,0,VALID,22.6672,VALID,329,VALID,2.36328,
2009-05-19, 02:07:04,VALID,1000.09,VALID,0,VALID,94.4394,VALID,0,VALID,22.6282,VALID,5,VALID,1.66445,
2009-05-19, 02:08:04,VALID,1000.09,VALID,0.5,VALID,94.5081,VALID,0,VALID,22.6477,VALID,360,VALID,1.58164,
2009-05-19, 02:09:04,VALID,1000.14,VALID,0,VALID,94.592,VALID,0,VALID,22.6477,VALID,341,VALID,1.40039,
2009-05-19, 02:10:04,VALID,1000.17,VALID,0.5,VALID,94.6836,VALID,0,VALID,22.6867,VALID,323,VALID,2.20469,
2009-05-19, 02:11:04,VALID,1000.14,VALID,0,VALID,94.676,VALID,0,VALID,22.6867,VALID,354,VALID,1.96094,
2009-05-19, 02:12:04,VALID,1000.13,VALID,0,VALID,94.6073,VALID,0,VALID,22.6867,VALID,344,VALID,2.48633,
2009-05-19, 02:13:04,VALID,1000.14,VALID,0.5,VALID,94.6531,VALID,0,VALID,22.6867,VALID,340,VALID,2.82422,
2009-05-19, 02:14:04,VALID,1000.1,VALID,0,VALID,94.6454,VALID,0,VALID,22.7062,VALID,344,VALID,1.41289,
2009-05-19, 02:15:04,VALID,1000.08,VALID,0,VALID,94.7065,VALID,0,VALID,22.7257,VALID,335,VALID,1.78008,
2009-05-19, 02:16:04,VALID,1000.06,VALID,0.5,VALID,94.7217,VALID,0,VALID,22.7257,VALID,348,VALID,1.89648,
2009-05-19, 02:17:04,VALID,1000.08,VALID,0,VALID,94.6912,VALID,0,VALID,22.7452,VALID,327,VALID,1.84609,
2009-05-19, 02:18:04,VALID,1000.09,VALID,0,VALID,94.7217,VALID,0,VALID,22.7842,VALID,306,VALID,1.01875,
2009-05-19, 02:19:04,VALID,1000.1,VALID,0.5,VALID,94.7141,VALID,0,VALID,22.7842,VALID,286,VALID,0.514844,
2009-05-19, 02:20:04,VALID,1000.11,VALID,0,VALID,94.7294,VALID,0,VALID,22.7647,VALID,271,VALID,0.276563,
2009-05-19, 02:21:04,VALID,1000.1,VALID,0.5,VALID,94.7523,VALID,0,VALID,22.7647,VALID,315,VALID,0.371094,
2009-05-19, 02:22:04,VALID,1000.08,VALID,0.5,VALID,94.7751,VALID,0,VALID,22.7647,VALID,355,VALID,0.642969,
2009-05-19, 02:23:04,VALID,1000.09,VALID,0,VALID,94.7828,VALID,0,VALID,22.786,VALID,11,VALID,1.29453,
2009-05-19, 02:24:04,VALID,1000.08,VALID,0.5,VALID,94.798,VALID,0,VALID,22.7452,VALID,13,VALID,1.01172,
2009-05-19, 02:25:04,VALID,1000.09,VALID,0.5,VALID,94.7828,VALID,0,VALID,22.7452,VALID,17,VALID,1.16719,
2009-05-19, 02:26:04,VALID,1000.07,VALID,0,VALID,94.8209,VALID,0,VALID,22.7664,VALID,31,VALID,1.64609,
2009-05-19, 02:27:04,VALID,1000.08,VALID,0.5,VALID,94.8667,VALID,0,VALID,22.7664,VALID,36,VALID,1.9,
2009-05-19, 02:28:05,VALID,1000.07,VALID,0.5,VALID,94.8743,VALID,0,VALID,22.7647,VALID,38,VALID,2.23359,
2009-05-19, 02:29:05,VALID,1000.09,VALID,0,VALID,94.9125,VALID,0,VALID,22.7842,VALID,42,VALID,1.89766,
2009-05-19, 02:30:05,VALID,1000.07,VALID,0.5,VALID,94.9506,VALID,0,VALID,22.8232,VALID,42,VALID,1.82383,
2009-05-19, 02:31:05,VALID,1000.05,VALID,0,VALID,94.9659,VALID,0,VALID,22.8232,VALID,42,VALID,1.88867,
2009-05-19, 02:32:05,VALID,1000.05,VALID,0.5,VALID,94.9506,VALID,0,VALID,22.8232,VALID,42,VALID,1.27188,
2009-05-19, 02:33:05,VALID,1000.06,VALID,0,VALID,94.9659,VALID,0,VALID,22.8232,VALID,50,VALID,1.79023,
2009-05-19, 02:34:05,VALID,1000.04,VALID,0,VALID,94.9659,VALID,0,VALID,22.8232,VALID,37,VALID,1.52305,
2009-05-19, 02:35:05,VALID,1000.05,VALID,0,VALID,94.9659,VALID,0,VALID,22.8427,VALID,34,VALID,1.58281,
2009-05-19, 02:36:05,VALID,1000.01,VALID,0,VALID,94.9583,VALID,0,VALID,22.8232,VALID,41,VALID,1.27578,
2009-05-19, 02:37:05,VALID,1000.04,VALID,0,VALID,95.0193,VALID,0,VALID,22.8232,VALID,32,VALID,1.53945,
2009-05-19, 02:38:05,VALID,1000.04,VALID,0,VALID,95.0269,VALID,0,VALID,22.8445,VALID,23,VALID,1.30742,
2009-05-19, 02:39:05,VALID,1000.03,VALID,0,VALID,95.0345,VALID,0,VALID,22.8427,VALID,13,VALID,1.24805,
2009-05-19, 02:40:05,VALID,1000.03,VALID,0,VALID,95.0498,VALID,0,VALID,22.8623,VALID,9,VALID,0.935547,
2009-05-19, 02:41:05,VALID,1000.02,VALID,0,VALID,95.0574,VALID,0,VALID,22.841,VALID,18,VALID,1.25039,
2009-05-19, 02:42:05,VALID,1000.02,VALID,0,VALID,95.0651,VALID,0,VALID,22.8818,VALID,3,VALID,1.02852,
2009-05-19, 02:43:05,VALID,1000.04,VALID,0,VALID,95.0956,VALID,0,VALID,22.9013,VALID,355,VALID,0.725391,
2009-05-19, 02:44:05,VALID,999.98,VALID,0,VALID,95.0956,VALID,0,VALID,22.9208,VALID,359,VALID,0.530469,
2009-05-19, 02:45:05,VALID,1000.04,VALID,0,VALID,95.1032,VALID,0,VALID,22.9208,VALID,351,VALID,0.509375,
2009-05-19, 02:46:05,VALID,1000.03,VALID,0,VALID,95.1108,VALID,0.112286,VALID,22.9403,VALID,351,VALID,0.628906,
2009-05-19, 02:47:05,VALID,1000.03,VALID,0,VALID,95.149,VALID,0,VALID,22.9793,VALID,353,VALID,1.27266,
2009-05-19, 02:48:05,VALID,1000.03,VALID,0.5,VALID,95.1337,VALID,0,VALID,22.9988,VALID,350,VALID,0.305859,
2009-05-19, 02:49:05,VALID,1000.01,VALID,0,VALID,95.1566,VALID,0,VALID,23.0183,VALID,360,VALID,0.626172,
2009-05-19, 02:50:05,VALID,1000.01,VALID,0,VALID,95.1566,VALID,0,VALID,23.0378,VALID,7,VALID,0.832031,
2009-05-19, 02:51:05,VALID,1000.02,VALID,0.5,VALID,95.1414,VALID,0,VALID,23.0786,VALID,352,VALID,0.754297,
2009-05-19, 02:52:05,VALID,999.991,VALID,0,VALID,95.1566,VALID,0,VALID,23.0573,VALID,354,VALID,1.04297,
2009-05-19, 02:53:05,VALID,999.968,VALID,0.5,VALID,95.1414,VALID,0,VALID,23.0573,VALID,2,VALID,1.52031,
2009-05-19, 02:54:05,VALID,999.96,VALID,0.5,VALID,95.1261,VALID,0.112286,VALID,23.0573,VALID,355,VALID,0.865625,
2009-05-19, 02:55:05,VALID,999.965,VALID,0.5,VALID,95.1185,VALID,0,VALID,23.0378,VALID,349,VALID,0.801953,
2009-05-19, 02:56:05,VALID,999.962,VALID,0,VALID,95.0956,VALID,0,VALID,23.0378,VALID,326,VALID,1.01055,
2009-05-19, 02:57:05,VALID,999.966,VALID,0.5,VALID,95.0956,VALID,0,VALID,23.0183,VALID,344,VALID,0.773438,
2009-05-19, 02:58:05,VALID,999.962,VALID,0.5,VALID,95.1337,VALID,0,VALID,22.9776,VALID,324,VALID,0.887891,
2009-05-19, 02:59:05,VALID,999.972,VALID,0.5,VALID,95.1108,VALID,0,VALID,22.9988,VALID,346,VALID,1.69297,
2009-05-19, 03:00:05,VALID,999.978,VALID,0,VALID,95.1032,VALID,0,VALID,22.9598,VALID,326,VALID,0.838672,
2009-05-19, 03:01:05,VALID,999.939,VALID,0.5,VALID,95.1261,VALID,0,VALID,22.9793,VALID,343,VALID,1.1125,
2009-05-19, 03:02:05,VALID,999.959,VALID,0,VALID,95.1185,VALID,0,VALID,22.9793,VALID,347,VALID,1.13281,
2009-05-19, 03:03:05,VALID,999.942,VALID,0,VALID,95.1566,VALID,0,VALID,22.9598,VALID,349,VALID,1.29922,
2009-05-19, 03:04:05,VALID,999.926,VALID,0,VALID,95.1032,VALID,0,VALID,22.9403,VALID,342,VALID,1.74023,
2009-05-19, 03:05:05,VALID,999.936,VALID,0,VALID,95.1261,VALID,0,VALID,22.9208,VALID,343,VALID,1.38008,
2009-05-19, 03:06:05,VALID,999.943,VALID,0,VALID,95.1185,VALID,0,VALID,22.9013,VALID,349,VALID,1.20156,
2009-05-19, 03:07:05,VALID,999.956,VALID,0,VALID,95.1566,VALID,0,VALID,22.9225,VALID,332,VALID,0.634766,
2009-05-19, 03:08:05,VALID,999.949,VALID,0,VALID,95.149,VALID,0,VALID,22.9013,VALID,349,VALID,0.305859,
2009-05-19, 03:09:05,VALID,999.973,VALID,0,VALID,95.1566,VALID,0,VALID,22.9208,VALID,349,VALID,0.431641,
2009-05-19, 03:10:05,VALID,999.995,VALID,0,VALID,95.1795,VALID,0,VALID,22.9013,VALID,349,VALID,0.291406,
2009-05-19, 03:11:05,VALID,1000.01,VALID,0,VALID,95.1719,VALID,0,VALID,22.9208,VALID,349,VALID,0.0125,
2009-05-19, 03:12:05,VALID,999.996,VALID,0,VALID,95.1719,VALID,0,VALID,22.9208,VALID,349,VALID,0.370313,
2009-05-19, 03:13:05,VALID,999.988,VALID,0,VALID,95.1719,VALID,0.112286,VALID,22.9403,VALID,352,VALID,0.317187,
2009-05-19, 03:14:05,VALID,1000,VALID,0,VALID,95.1948,VALID,0,VALID,22.9208,VALID,352,VALID,0.362891,
2009-05-19, 03:15:05,VALID,1000.03,VALID,0,VALID,95.1719,VALID,0,VALID,22.9208,VALID,352,VALID,0.326953,
2009-05-19, 03:16:05,VALID,1000,VALID,0,VALID,95.1795,VALID,0,VALID,22.9208,VALID,352,VALID,0.513672,
2009-05-19, 03:17:05,VALID,1000,VALID,0,VALID,95.1871,VALID,0,VALID,22.942,VALID,352,VALID,0.525,
2009-05-19, 03:18:05,VALID,999.978,VALID,0,VALID,95.1948,VALID,0,VALID,22.9403,VALID,58,VALID,0.380469,
2009-05-19, 03:19:05,VALID,1000.01,VALID,0,VALID,95.1948,VALID,0,VALID,22.942,VALID,58,VALID,0.0308594,
2009-05-19, 03:20:05,VALID,1000.01,VALID,0,VALID,95.2024,VALID,0,VALID,22.9403,VALID,58,VALID,0.358203,
2009-05-19, 03:21:05,VALID,1000.05,VALID,0,VALID,95.1871,VALID,0,VALID,22.9598,VALID,86,VALID,0.630469,
2009-05-19, 03:22:05,VALID,1000.02,VALID,0,VALID,95.21,VALID,0,VALID,22.9598,VALID,90,VALID,0.718359,
2009-05-19, 03:23:05,VALID,1000.03,VALID,0,VALID,95.2405,VALID,0,VALID,22.9598,VALID,93,VALID,0.839844,
2009-05-19, 03:24:05,VALID,1000.01,VALID,0,VALID,95.2329,VALID,0,VALID,22.9793,VALID,99,VALID,0.759766,
2009-05-19, 03:25:05,VALID,1000.02,VALID,0,VALID,95.21,VALID,0,VALID,22.9988,VALID,101,VALID,0.650391,
2009-05-19, 03:26:05,VALID,1000.03,VALID,0,VALID,95.2253,VALID,0,VALID,22.9988,VALID,86,VALID,0.667578,
2009-05-19, 03:27:05,VALID,1000.01,VALID,0,VALID,95.2177,VALID,0,VALID,23.0183,VALID,74,VALID,0.689062,
2009-05-19, 03:28:05,VALID,1000.02,VALID,0,VALID,95.2329,VALID,0,VALID,23.0183,VALID,77,VALID,0.573828,
2009-05-19, 03:29:05,VALID,1000.01,VALID,0,VALID,95.2024,VALID,0,VALID,23.0183,VALID,89,VALID,0.483594,
2009-05-19, 03:30:05,VALID,1000.01,VALID,0,VALID,95.21,VALID,0,VALID,22.9971,VALID,84,VALID,0.81875,
2009-05-19, 03:31:05,VALID,999.988,VALID,0,VALID,95.21,VALID,0,VALID,23.0378,VALID,72,VALID,0.73125,
2009-05-19, 03:32:05,VALID,999.996,VALID,0,VALID,95.2177,VALID,0,VALID,23.0183,VALID,94,VALID,0.901172,
2009-05-19, 03:33:05,VALID,1000,VALID,0,VALID,95.2177,VALID,0,VALID,23.0378,VALID,85,VALID,1.39805,
2009-05-19, 03:34:05,VALID,999.979,VALID,0,VALID,95.2024,VALID,0,VALID,23.0378,VALID,98,VALID,1.18047,
2009-05-19, 03:35:05,VALID,999.98,VALID,0,VALID,95.21,VALID,0,VALID,23.0573,VALID,99,VALID,0.989062,
2009-05-19, 03:36:05,VALID,999.972,VALID,0,VALID,95.2177,VALID,0,VALID,23.0573,VALID,93,VALID,1.01055,
2009-05-19, 03:37:05,VALID,999.962,VALID,0,VALID,95.21,VALID,0,VALID,23.0573,VALID,97,VALID,0.908984,
2009-05-19, 03:38:05,VALID,999.957,VALID,0,VALID,95.1871,VALID,0,VALID,23.0573,VALID,95,VALID,1.21172,
2009-05-19, 03:39:05,VALID,999.948,VALID,0,VALID,95.2024,VALID,0,VALID,23.0378,VALID,107,VALID,1.01328,
2009-05-19, 03:40:05,VALID,999.969,VALID,0,VALID,95.1719,VALID,0,VALID,23.0378,VALID,104,VALID,0.958203,
2009-05-19, 03:41:05,VALID,999.947,VALID,0,VALID,95.21,VALID,0,VALID,23.0573,VALID,103,VALID,0.944531,
2009-05-19, 03:42:05,VALID,999.93,VALID,0,VALID,95.1948,VALID,0,VALID,23.0573,VALID,95,VALID,0.746094,
2009-05-19, 03:43:05,VALID,999.938,VALID,0,VALID,95.1871,VALID,0,VALID,23.0573,VALID,90,VALID,0.943359,
2009-05-19, 03:44:05,VALID,999.895,VALID,0,VALID,95.1871,VALID,0,VALID,23.0573,VALID,89,VALID,0.721094,
2009-05-19, 03:45:05,VALID,999.909,VALID,0,VALID,95.2024,VALID,0,VALID,23.0573,VALID,89,VALID,0.670703,
2009-05-19, 03:46:05,VALID,999.869,VALID,0,VALID,95.1871,VALID,0,VALID,23.0573,VALID,87,VALID,0.774609,
2009-05-19, 03:47:05,VALID,999.867,VALID,0,VALID,95.1719,VALID,0,VALID,23.0556,VALID,87,VALID,0.552344,